Location: Olsztyn
(53.7767°N, 20.4765°E)
Time: 09:30:49
(UTC+02:00)

Tiros 1 despin weight - Visible Passes

Search period start: 15 July 2024 00:00
Search period end: 25 July 2024 00:00
Orbit: 576 x 620 km, 48.2° (Epoch: 14 July)

Date Brightness Start Highest point End Pass type
(mag) Time Alt. Az. Time Alt. Az. Time Alt. Az.
18 Jul ? 02:38:48 11° S 02:40:44 14° SE 02:43:07 10° ESE visible
19 Jul ? 02:48:07 14° S 02:50:25 20° SSE 02:53:38 10° ESE visible
20 Jul ? 02:57:23 14° SSW 03:00:09 26° SSE 03:03:50 10° E visible
21 Jul ? 01:30:01 14° SE 01:30:01 14° SE 01:32:00 10° ESE visible
21 Jul ? 03:06:37 13° SW 03:09:56 32° SSE 03:13:53 10° E visible
22 Jul ? 01:39:13 19° SSE 01:39:23 19° SSE 01:42:32 10° ESE visible
22 Jul ? 03:15:50 11° WSW 03:19:45 37° S 03:23:50 10° ESE visible
23 Jul ? 01:48:23 24° S 01:49:05 25° SSE 01:52:44 10° E visible
23 Jul ? 03:25:29 10° WSW 03:29:35 40° S 03:33:43 10° ESE visible
24 Jul ? 01:57:32 26° SSW 01:58:50 31° SSE 02:02:45 10° E visible
24 Jul ? 03:35:19 10° WSW 03:39:24 40° S 03:43:33 10° ESE visible
